Regional Weather Roundup
Issued by NWS

Home | Current Version | Previous Version | Graphics & Text | Print | Product List | Glossary On
Versions: 1 2 3 4 5 6 7 8 9 10 11 12 13 14 15 16 17 18 19 20 21 22 23 24 25 26 27 28 29 30 31 32 33 34 35 36 37 38 39 40 41 42 43 44 45 46 47 48 49
000
ASUS45 KCYS 290410
RWRWY

WYOMING REGIONAL WEATHER ROUNDUP
NATIONAL WEATHER SERVICE CHEYENNE WY
1000 PM MDT SUN JUN 28 2015

NOTE:  "FAIR" INDICATES FEW OR NO CLOUDS BELOW 12,000 FEET
WITH NO SIGNIFICANT WEATHER AND/OR OBSTRUCTIONS TO VISIBILITY.

WYZ001-290500-
YELLOWSTONE NATIONAL PARK

CITY           SKY/WX    TMP DP  RH WIND       PRES   REMARKS
LK YELLOWSTONE   N/A     67  46  47 CALM      30.44R
W YELLOWSTONE  NOT AVBL

$$
WYZ002>013-054>058-071-098>099-290500-
NORTHERN WYOMING

CITY           SKY/WX    TMP DP  RH WIND       PRES   REMARKS
JACKSON        FAIR      70  48  46 N13       30.28R
CODY           FAIR      75  52  43 SW5       30.21R
GREYBULL       FAIR      83  50  31 E6        30.09R
WORLAND        FAIR      76  53  44 S12       30.11R
SHERIDAN       FAIR      67  59  75 SW7       30.09S
BUFFALO        FAIR      71  54  54 W9        30.18R
GILLETTE       FAIR      70  57  63 S3        30.12R
HULETT         FAIR      70  59  68 S8        30.12R
NEWCASTLE      FAIR      68  59  73 SE7       30.15R

$$
WYZ014>020-022>026-101>103-290500-
CENTRAL WYOMING

CITY           SKY/WX    TMP DP  RH WIND       PRES   REMARKS
BIG PINEY      FAIR      66  46  48 NW8       30.33R
PINEDALE       FAIR      68  45  42 CALM      30.35R
DUBOIS         FAIR      63  45  51 S5        30.39R
LANDER         FAIR      73  49  42 W10       30.25F
RIVERTON       FAIR      73  50  44 CALM      30.24F
CASPER         FAIR      67  51  56 CALM      30.23R
DOUGLAS        FAIR      74  50  42 W9G25     30.20R

$$
WYZ021-027>030-104>119-290500-
SOUTHERN WYOMING

CITY           SKY/WX    TMP DP  RH WIND       PRES   REMARKS
EVANSTON       FAIR      78  40  25 NE6       30.29R
KEMMERER       FAIR     N/A N/A N/A N9        30.33R
FORT BRIDGER   CLEAR     77  37  24 NE9       30.31R
ROCK SPRINGS   FAIR      74  39  28 NE24G32   30.30R
DIXON          FAIR      73  44  34 NE8       30.28R
RAWLINS        FAIR      71  42  35 E9        30.34S
SARATOGA       FAIR      68  46  45 N14G23    30.37R
LARAMIE        FAIR      67  47  48 S6        30.35R
CHEYENNE       FAIR      69  54  58 CALM      30.27R
TORRINGTON     FAIR      73  53  49 E8        30.12R
PINE BLUFFS    FAIR      64  61  88 W3        30.20R

$$



USA.gov is the U.S. government's official web portal to all federal, state and local government web resources and services.